Miscellaneous Local Product
Issued by NWS Hastings, NE

Home | Current Version | Previous Version | Graphics & Text | Print | Product List | Glossary On
Versions: 1 2 3 4 5 6 7 8 9 10 11 12 13 14 15 16 17 18 19 20 21 22 23 24 25 26 27 28 29 30 31 32 33 34 35 36 37 38 39 40 41 42 43 44 45 46 47 48 49 50
000
AXUS43 KGID 301202
MISGRI

GID CWA HOURLY WEATHER ROUNDUP
NATIONAL WEATHER SERVICE HASTINGS NE
700 AM CDT THU OCT 30 2014

NOTE: "FAIR" INDICATES FEW OR NO CLOUDS BELOW 12,000 FEET WITH NO
SIGNIFICANT WEATHER AND/OR OBSTRUCTIONS TO VISIBILITY.

...SOUTH CENTRAL NEBRASKA...

CITY           SKY/WX    TMP DP  RH WIND       PRES   REMARKS
GRAND ISLAND   CLEAR     39  32  76 W8        30.10R WCI  33
HASTINGS       CLEAR     42  31  64 NW12      30.10R
KEARNEY        CLEAR     43  28  56 W9        30.13R
ORD            CLEAR     33  29  85 NW7       30.10R WCI  27
YORK           CLEAR     41  36  81 NW9       30.06R
AURORA         CLEAR     42  33  72 NW10      30.08R
LEXINGTON      CLEAR     38  29  72 NW9       30.15R WCI  31
HOLDREGE       CLEAR     42  28  58 NW9       30.13R
HEBRON         CLEAR     40  34  80 NW8       30.06R WCI  34

...NEBRASKA PANHANDLE...

CITY           SKY/WX    TMP DP  RH WIND       PRES   REMARKS
CHADRON        CLEAR     38  27  64 SW7       30.26R WCI  33
ALLIANCE       CLEAR     29  25  85 W9        30.25R WCI  20
SCOTTSBLUFF    CLEAR     32  28  85 NW8       30.29R WCI  25
SIDNEY         CLEAR     37  26  64 W14       30.28R WCI  28

...WESTERN AND NORTH CENTRAL NEBRASKA...

CITY           SKY/WX    TMP DP  RH WIND       PRES   REMARKS
VALENTINE      CLEAR     37  31  78 W8        30.16R WCI  31
AINSWORTH      CLEAR     42  33  70 W9        30.13R
ONEILL         CLEAR     45  36  70 NW13      30.08R
BROKEN BOW     CLEAR     45  32  60 NW13      30.13R
IMPERIAL       CLEAR     40  25  55 NW13      30.23R WCI  32
NORTH PLATTE   CLEAR     33  27  78 W8        30.19R WCI  26
MCCOOK         CLEAR     40  25  55 W12       30.19R WCI  33

...EASTERN NEBRASKA...

CITY           SKY/WX    TMP DP  RH WIND       PRES   REMARKS
NORFOLK        CLEAR     40  33  76 W6        30.04R
SO SIOUX CITY  CLEAR     34  31  88 CALM      30.01R
TEKAMAH        CLEAR     34  29  82 CALM      30.01S
COLUMBUS         N/A    N/A N/A N/A MISG        N/A
ALBION         CLEAR     43  32  66 N6        30.07R
OMAHA EPPLEY   PTCLDY    41  35  79 N3        30.02R
MILLARD        CLEAR     38  35  88 CALM      30.01S
LINCOLN        CLEAR     37  33  85 CALM      30.04R
NEBRASKA CITY  PTCLDY    40  34  79 NW5       30.01R
BEATRICE       CLEAR     36  35  94 NW3       30.03R
FALLS CITY     CLOUDY    45  40  82 CALM      29.97F

...NORTHERN KANSAS...

CITY           SKY/WX    TMP DP  RH WIND       PRES   REMARKS
GOODLAND       CLEAR     38  25  59 W9        30.25R WCI  31
HILL CITY      CLEAR     48  27  44 NW14      30.15R
NORTON         SUNNY     41  25  52 W12       30.14R
PHILLIPSBURG   CLEAR     46  34  61 W10       30.12R
SMITH CENTER   CLEAR     45  32  61 N12       30.10R
BELOIT         CLEAR     43  37  81 W6        30.06R
HAYS           CLEAR     48  28  46 NW13      30.11R
RUSSELL        CLEAR     46  33  60 NW16      30.10R
CONCORDIA      CLEAR     43  38  82 NW9       30.05R
SALINA         CLEAR     50  39  66 NW15      30.04R
TOPEKA         MOCLDY    52  41  66 S6        29.99F



USA.gov is the U.S. government's official web portal to all federal, state and local government web resources and services.